Flag for United Kingdom Weather past 2 weeks in Greenwich Borough, England, United Kingdom

Now
50 °F

Passing clouds.


Feels Like: 48 °F
Forecast: 45 / 67 °F
Wind: 5 mph from Northwest

Location: Northolt

Current Time: May 26, 2015 at 3:27:30 AM

Latest Report: May 26, 2015 at 1:50 AM


Visibility: N/A

Pressure: 30.15 "Hg

Humidity: 82%

Dew point: 45 °F

Location of Greenwich BoroughLocation

Historic Weather in Greenwich Borough — Graph

°F

Greenwich Borough temperature yesterday

Maximum temperature yesterday: 61 °F (at 12:50 PM)
Minimum temperature yesterday: 46 °F (at 4:50 AM)
Average temperature yesterday: 55 °F

Past Weeks' High & Low Weather Summary

 TemperatureHumidityPressure
High70 °F (May 11, 2:50 PM)94% (May 14, 2:50 PM)30.36 "Hg (May 14, 2:50 PM)
Low39 °F (May 20, 3:50 AM)28% (May 13, 2:50 PM)29.56 "Hg (May 18, 12:50 PM)
Average54 °F69%30.07 "Hg
* Reported May 11 1:50 AM — May 26 1:50 AM, Greenwich Borough, Weather by CustomWeather, © 2015

Note: Actual official high and low records may vary slightly from our data, if they occured in-between our weather recording intervals... More about our weather records

Advertising

Greenwich Borough weather history for previous 24 hours

 ConditionsComfort  
Time TempWeatherWind HumidityBarometerVisibility
1:50 AM
Tue, May 26
50 °FPassing clouds.5 mph82%30.15 "HgN/A
12:50 AM54 °FOvercast.6 mph72%30.15 "HgN/A
11:50 PM
Mon, May 25
54 °FPassing clouds.3 mph77%30.15 "HgN/A
10:50 PM55 °FOvercast.6 mph67%30.15 "HgN/A
9:50 PM55 °FOvercast.5 mph67%30.12 "HgN/A
8:50 PM57 °FOvercast.7 mph63%30.12 "HgN/A
7:50 PM59 °FOvercast.8 mph59%30.09 "HgN/A
6:50 PM59 °FMore clouds than sun.8 mph59%30.09 "HgN/A
5:50 PM61 °FMore clouds than sun.8 mph55%30.09 "HgN/A
4:49 PM61 °FBroken clouds.10 mph55%30.09 "HgN/A
3:57 PM61 °FBroken clouds.10 mph52%30.09 "HgN/A
2:50 PM59 °FBroken clouds.12 mph55%30.09 "HgN/A
1:50 PM59 °FBroken clouds.8 mph51%30.09 "HgN/A
12:50 PM61 °FBroken clouds.12 mph48%30.09 "HgN/A
11:50 AM59 °FBroken clouds.10 mph51%30.09 "HgN/A
10:50 AM57 °FBroken clouds.9 mph55%30.09 "HgN/A
9:50 AM55 °FBroken clouds.13 mph55%30.09 "HgN/A
8:50 AM54 °FPartly sunny.6 mph67%30.09 "HgN/A
7:50 AM52 °FPartly sunny.7 mph67%30.09 "HgN/A
6:50 AM50 °FPartly sunny.5 mph76%30.09 "HgN/A
5:50 AM48 °FPassing clouds.2 mph76%30.09 "HgN/A
4:50 AM46 °FPassing clouds.6 mph82%30.09 "HgN/A
3:50 AM48 °FPassing clouds.7 mph76%30.09 "HgN/A
Weather by CustomWeather, © 2015

See weather overviewHow to use our weather pages